Satellite-Ground Cal/Val Region Overpasses Predictions

Prediction of Satellite NPP Overpassing Cal/Val Region: PacNW

Region Location: (Latitude: 10.00, Longitude: 139.50) to (Latitude: 22.70, Longitude: 165.60).

Table of predicted overpasses for the next 14.0 days since TLE Epoch: 4/18/2015
Interval Starting Time Starting Location Ending Time Ending Location
1 04/18/2015 14:57:18 ( 22.67, 161.92) 04/18/2015 15:00:53 ( 10.05, 158.93)
2 04/19/2015 03:47:51 ( 10.03, 144.09) 04/19/2015 03:51:26 ( 22.65, 141.10)
3 04/19/2015 14:39:30 ( 18.21, 165.59) 04/19/2015 14:41:49 ( 10.04, 163.69)
4 04/19/2015 16:19:44 ( 22.65, 141.30) 04/19/2015 16:21:51 ( 15.20, 139.50)
5 04/20/2015 03:28:48 ( 10.04, 148.85) 04/20/2015 03:32:23 ( 22.66, 145.86)
6 04/20/2015 16:00:41 ( 22.64, 146.06) 04/20/2015 16:04:16 ( 10.02, 143.07)
7 04/21/2015 03:09:45 ( 10.04, 153.61) 04/21/2015 03:13:20 ( 22.67, 150.62)
8 04/21/2015 15:41:36 ( 22.69, 150.84) 04/21/2015 15:45:12 ( 10.01, 147.83)
9 04/22/2015 02:50:41 ( 10.06, 158.37) 04/22/2015 02:54:16 ( 22.68, 155.38)
10 04/22/2015 15:22:33 ( 22.68, 155.59) 04/22/2015 15:26:08 ( 10.06, 152.60)
11 04/23/2015 02:31:37 ( 10.01, 163.14) 04/23/2015 02:35:13 ( 22.69, 160.14)
12 04/23/2015 15:03:29 ( 22.67, 160.35) 04/23/2015 15:07:04 ( 10.05, 157.36)
13 04/24/2015 02:15:21 ( 19.89, 165.59) 04/24/2015 02:16:08 ( 22.64, 164.91)
14 04/24/2015 03:54:03 ( 10.03, 142.53) 04/24/2015 03:57:38 ( 22.66, 139.53)
15 04/24/2015 14:44:26 ( 22.65, 165.11) 04/24/2015 14:48:01 ( 10.03, 162.12)
16 04/24/2015 16:25:55 ( 22.70, 139.75) 04/24/2015 16:26:11 ( 21.76, 139.51)
17 04/25/2015 03:35:00 ( 10.05, 147.28) 04/25/2015 03:38:35 ( 22.67, 144.29)
18 04/25/2015 16:06:51 ( 22.69, 144.51) 04/25/2015 16:10:27 ( 10.00, 141.50)
19 04/26/2015 03:15:55 ( 10.00, 152.05) 04/26/2015 03:19:31 ( 22.69, 149.05)
20 04/26/2015 15:47:48 ( 22.67, 149.26) 04/26/2015 15:51:23 ( 10.05, 146.27)
21 04/27/2015 02:56:52 ( 10.02, 156.81) 04/27/2015 03:00:27 ( 22.64, 153.82)
22 04/27/2015 15:28:44 ( 22.65, 154.02) 04/27/2015 15:32:19 ( 10.03, 151.03)
23
